Home   Weather   Honningsvåg   Past weeks

Flag for Norway Past Weather in Honningsvåg, Norway — Yesterday and Last 2 Weeks

Now
52 °F

Passing clouds.


Feels Like: 47 °F
Forecast: 50 / 54 °F
Wind: 13 mph from South

Location: Honningsvag / Valan

Current Time: Sep 28, 2016 at 3:51:38 AM

Latest Report: Sep 28, 2016 at 1:20 AM


Visibility: N/A

Pressure: 29.77 "Hg

Humidity: 82%

Dew Point: 46 °F

Location of HonningsvågLocation

Past Weather in Honningsvåg — Graph

°F

Honningsvåg Temperature Yesterday

Maximum temperature yesterday: 52 °F (at 5:50 AM)
Minimum temperature yesterday: 50 °F (at 11:50 AM)
Average temperature yesterday: 52 °F

High & Low Weather Summary for the Past Weeks

 TemperatureHumidityPressure
High66 °F (Sep 17, 12:50 PM)100% (Sep 23, 5:50 AM)30.30 "Hg (Sep 23, 5:50 AM)
Low45 °F (Sep 25, 8:50 PM)37% (Sep 17, 12:50 PM)29.77 "Hg (Sep 28, 12:50 AM)
Average51 °F79%30.10 "Hg
* Reported Sep 13 5:50 AM — Sep 28 1:20 AM, Honningsvåg, Weather by CustomWeather, © 2016

Note: Actual official high and low records may vary slightly from our data, if they occured in-between our weather recording intervals... More about our weather records

Advertising

Honningsvåg Weather History for the Previous 24 Hours

Scroll right to see more
 ConditionsComfort  
Time TempWeatherWind HumidityBarometerVisibility
1:20 AM
Wed, Sep 28
52 °FPassing clouds.13 mph82%29.77 "HgN/A
12:50 AM52 °FPassing clouds.12 mph82%29.77 "HgN/A
12:20 AM52 °FPassing clouds.13 mph82%29.80 "HgN/A
10:50 PM
Tue, Sep 27
52 °FPassing clouds.21 mph82%29.80 "HgN/A
9:50 PM50 °FPassing clouds.16 mph88%29.83 "HgN/A
9:20 PM52 °FPartly cloudy.13 mph82%29.86 "HgN/A
8:20 PM52 °FPassing clouds.13 mph82%29.89 "HgN/A
6:50 PM52 °FPassing clouds.10 mph82%29.92 "HgN/A
5:50 PM52 °FPartly sunny.7 mph82%29.95 "HgN/A
4:50 PM52 °FSprinkles. Partly sunny.10 mph88%30.01 "HgN/A
3:50 PM52 °FPartly sunny.3 mph82%30.04 "HgN/A
1:50 PM52 °FBroken clouds.No wind82%30.09 "HgN/A
11:50 AM50 °FPartly sunny.7 mph88%30.12 "HgN/A
7:50 AM52 °FSunny.10 mph82%30.12 "Hg10 mi
6:50 AM52 °FScattered clouds.2 mph82%30.12 "HgN/A
5:50 AM52 °FClear.9 mph82%30.12 "Hg10 mi
Weather by CustomWeather, © 2016

See weather overviewHow to use our weather pages